Van Nuys, CA (91411)

6:57 AM PST on March 06, 2015 (GMT -0800)
Valley College Weather Station | Change Station
CLOSE
Current Station
Personal Weather Station
Location: Valley Glen, CA
Elevation: 699 ft
Nearby Weather Stations
Active Advisory: Wind Advisory Active Notice: Record Report, Public Information Statement

Elev 699 ft 34.18 °N, 118.42 °W | Updated 18 seconds ago

Clear
Clear
47.9 °F
Feels Like 48 °F
N
0.0
Wind Variable Wind from NW
Gusts 0.0 mph

Today
High -- | Low -- °F
--% Chance of Precip.
Yesterday
High -- | Low -- °F
Precip. -- in
6:16 AM 5:54 PM
Full, 99% visible
Pressure 30.13 in
Visibility 10.0 miles
Clouds Clear
Windchill 48 °F
Dew Point 29 °F
Humidity 47%
Rainfall in
Snow Depth Not available.
UV 0 out of 12
Pollen 9.20 out of 12
Air Quality Not available.
Flu Activity Not available.
METAR KVNY 061451Z 35016G24KT 10SM CLR 17/M07 A3014 RMK AO2 PK WND 36026/1413 SLP201 T01671072 51005

More Conditions Fewer Conditions

Pressure 30.13 in
Visibility 10.0 miles
Clouds Clear
Windchill 48 °F
Dew Point 29 °F
Humidity 47%
Rainfall in
Snow Depth Not available.
UV 0 out of 12
Pollen 9.20 out of 12
Air Quality Not available.
Flu Activity Not available.
METAR KVNY 061451Z 35016G24KT 10SM CLR 17/M07 A3014 RMK AO2 PK WND 36026/1413 SLP201 T01671072 51005

More Conditions Fewer Conditions

10-Day Weather Forecast

Almanac

Astronomy

Mar. 06, 2015 Rise Set
Actual Time
Civil Twilight
Nautical Twilight
Astronomical Twilight
Moon
Length of Visible Light
Length of Day
Tomorrow will be .
, % of the Moon is Illuminated

Today's Extremes

State Highs State Lows

Community

WunderPhotos

Upload Photos

1,803,285 photos uploaded!

WunderBlogs® & News

Nearby

Air Quality

  Air Quality AQ Index Pollutant
Not available.

Snow Depth

Station Depth Elevation

Earthquake Activity

City Distance Mag. Time & Date
Minimum magnitude displayed is 2.5.

Coastal Water Temperatures

Place Temperature

Nearby Weather Stations

Wind Advisory
Statement as of 3:20 AM PST on March 06, 2015

... Wind Advisory in effect until 4 PM PST this afternoon...

The National Weather Service in Los Angeles/Oxnard has issued a
Wind Advisory for the San Fernando Valley. This advisory is in
effect until 4 PM PST this afternoon.

* Winds... areas of north to northeast 15 to 25 mph with gusts to
35 mph.

* Timing... strongest winds during the late morning and early
afternoon on Friday.

* Impacts... strong winds will make driving difficult for high
profile vehicles... including highways 101 and 118 and
interstates 5 and 405.

Precautionary/preparedness actions...

When driving... use extra caution. Be prepared for sudden gusty
cross winds.